Back to catalog

QIANFAN-204

AliveCommunicationsPO
NORAD 69803·PAYLOAD·🇨🇳 China

Launched Jul 4, 2026 from Taiyuan Satellite Launch Center

Loading…

Next Passes (next 24 hours)

TLE

FreshSource: Space-Track

Epoch: Sep 14, 2026, 11:57 UTC

1 69803U 26153D   26257.49801105 -.01873025  00000-0 -12730+1 0  9994
2 69803  88.9973 352.1193 0010862 340.5893  19.4873 14.03843148 10217

Track QIANFAN-204 in real time with AllMySat

Download on the App Store